CAPE
461 1082 951 1219 1506 1428 1521 1506 1430 1252 1234 1325 1118 1144 1275 1237 1141 879 649 538 508 556 918 606 853 848 933 895 790 587 553 507 483 429 443 548 638 748 652 499 182 179 158
737 1258 1027 1587 1558 1438 1478 1486 1274 1176 1204 1296 1097 1065 1207 1026 929 789 632 566 544 533 785 941 930 855 715 718 739 691 617 516 406 344 331 418 567 725 667 449 244 81 44
980 1157 1162 1632 1594 1485 1551 1392 1203 860 980 1058 831 748 1126 928 745 631 643 548 421 525 770 1010 776 581 604 679 506 613 445 448 321 289 343 383 520 668 471 270 296 168 119
972 1318 1249 1325 1506 1312 1319 1118 813 694 425 485 489 491 579 620 575 623 688 607 455 377 528 631 497 451 670 451 521 343 283 236 135 137 198 298 394 496 565 520 444 413 156
1077 1273 1292 1147 1219 1178 1097 838 720 395 344 359 317 405 404 676 675 680 669 578 403 291 267 291 286 299 525 442 231 171 110 17 0 0 0 0 23 95 66 44 4 3 13
1127 1314 1139 1027 1054 990 856 661 472 330 350 283 285 347 466 604 648 659 621 518 408 280 198 118 108 130 308 380 161 39 13 0 0 0 0 0 2 16 15 5 2 2 3
1051 1230 1067 1031 1040 921 688 594 545 503 389 244 262 281 472 618 666 676 597 508 414 300 204 114 71 92 150 223 322 125 66 30 14 11 13 37 2 1 2 2 2 8 8
879 1202 1055 979 1062 804 752 650 644 542 489 352 356 388 465 561 591 633 569 452 405 334 207 105 47 42 25 5 0 54 32 8 0 0 0 0 6 2 5 4 3 2 4
979 955 992 903 793 569 574 568 618 583 486 527 498 484 451 491 478 500 448 307 218 166 94 44 10 0 0 0 0 4 4 0 0 0 0 0 0 3 2 1 1 2 3
811 858 880 843 679 526 492 522 553 484 487 656 409 129 103 117 100 39 26 41 32 0 0 0 0 0 0 0 0 5 0 0 0 0 0 0 0 0 0 0 0 1 3
629 694 729 718 661 445 534 499 469 408 312 287 76 16 0 0 0 0 0 0 0 0 0 0 0 0 0 0 0 0 0 0 0 0 0 0 0 0 0 0 0 0 1
405 481 564 534 542 417 465 326 197 103 39 2 0 0 0 0 0 0 0 0 0 0 0 0 0 0 0 0 0 0 0 0 0 0 0 0 0 0 0 0 0 0 0
303 381 394 386 435 359 262 178 50 0 0 0 0 0 0 0 0 0 0 0 0 0 0 0 0 0 0 0 0 0 0 0 0 0 0 0 0 0 0 0 0 0 0
156 179 186 231 293 308 196 124 18 0 0 0 0 0 0 0 0 0 0 0 0 0 0 0 0 0 0 0 0 0 0 0 0 0 0 0 0 0 0 0 0 0 0
64 80 99 105 159 220 143 75 20 0 0 1 2 0 4 3 0 5 0 0 0 0 0 0 0 0 0 0 0 0 0 0 0 0 0 0 0 0 0 0 0 0 0
5 20 54 76 65 92 10 19 16 10 15 10 2 0 1 0 0 0 0 0 0 0 0 0 0 0 0 0 0 0 0 0 0 0 0 0 0 0 0 0 0 0 0
0 3 9 113 92 24 14 26 13 10 14 1 0 0 0 0 0 0 0 0 0 0 0 0 0 0 0 0 0 0 0 0 0 0 0 0 0 0 0 0 0 0 0
0 0 4 44 15 6 5 4 5 0 4 0 0 0 0 0 0 0 2 0 0 0 0 0 0 0 0 0 0 0 0 0 0 0 0 0 0 0 0 0 0 0 0
0 0 0 5 2 1 0 0 0 0 1 1 0 0 0 4 1 5 0 0 0 0 0 0 0 0 0 0 0 0 0 0 0 0 0 0 0 0 0 0 0 0 0
0 0 0 0 0 0 0 0 0 0 0 0 0 0 1 0 0 0 0 0 0 0 0 0 0 0 0 0 0 0 0 0 0 0 0 0 0 0 0 0 0 0 0
0 0 0 0 0 0 0 0 0 0 0 0 0 0 4 3 0 0 0 0 0 0 0 0 0 0 0 0 0 0 0 0 0 0 0 0 0 0 0 0 0 0 0
0 0 0 0 0 0 0 0 0 0 0 0 0 0 5 4 0 0 0 0 0 0 0 0 0 0 0 0 0 0 0 0 0 0 0 0 0 0 0 0 0 0 0
0 0 0 0 0 0 0 0 0 0 0 0 0 0 2 0 0 0 0 0 0 0 0 0 0 0 0 0 0 0 0 0 0 0 0 0 0 0 0 0 0 0 0
0 0 0 0 0 0 0 0 0 0 0 0 0 0 0 0 0 0 0 0 0 0 0 0 0 0 0 0 0 0 0 0 0 0 0 0 0 0 0 0 0 0 0
0 0 0 0 0 0 0 0 0 0 0 0 0 0 0 0 0 0 0 0 0 0 0 0 0 0 0 0 0 0 0 0 0 0 0 0 0 0 0 0 0 0 0
0 0 0 0 0 0 0 0 0 0 0 0 0 0 0 0 0 0 0 0 0 0 0 0 0 0 0 0 0 0 0 0 0 0 0 0 0 0 0 0 0 0 0
CIN
-23 -2 -4 0 0 0 0 0 0 0 0 0 0 0 0 0 0 0 -1 -8 -10 -8 0 -9 0 0 0 0 0 -1 0 -1 -3 -8 -8 -2 0 0 0 0 -19 -15 -22
-17 -1 -1 0 0 0 0 0 0 0 -1 0 0 0 0 0 0 -1 -10 -18 -18 -14 -1 0 0 0 0 0 0 0 0 -4 -7 -13 -16 -4 -1 0 0 0 -6 -41 -60
-14 -1 0 0 0 0 0 0 0 -8 -6 -3 -5 -12 0 0 -9 -21 -23 -28 -42 -32 -9 0 0 -1 -6 -5 -7 -4 -5 -6 -13 -16 -7 -3 0 0 0 -3 -1 -11 -33
-17 -1 0 -1 0 0 0 -3 -18 -25 -70 -61 -55 -52 -37 -25 -32 -28 -23 -25 -37 -53 -14 -2 -17 -24 -8 -10 -6 -8 -13 -15 -30 -40 -24 -3 -1 0 0 0 0 -1 -28
-14 -1 0 -2 0 -3 -6 -19 -30 -60 -75 -77 -98 -87 -93 -30 -29 -29 -31 -44 -86 -118 -125 -93 -73 -27 -12 -10 -38 -59 -80 -138 0 0 0 -2 -42 -90 -86 -101 0 0 -14
-8 -1 -2 -6 -4 -8 -21 -42 -66 -82 -68 -92 -111 -110 -85 -56 -50 -43 -57 -89 -112 -142 -171 -184 -142 -114 -36 -30 -96 -172 -210 0 0 0 0 0 -1 -155 -55 -19 0 -1 -1
-13 -1 -3 -3 -5 -15 -42 -54 -54 -55 -62 -102 -97 -113 -73 -45 -42 -40 -63 -90 -118 -154 -172 -192 -196 -157 -126 -98 -68 -141 -183 -215 -215 -202 -150 -190 -1 0 0 -3 -3 -1 -1
-38 -2 -4 -6 -2 -26 -36 -50 -40 -43 -47 -78 -81 -73 -59 -45 -49 -41 -64 -110 -119 -135 -181 -217 -268 -244 -245 -132 0 -211 -227 -29 0 0 0 0 -81 0 0 0 0 0 0
-38 -16 -10 -12 -21 -67 -65 -68 -51 -49 -66 -37 -48 -51 -78 -72 -89 -84 -108 -179 -223 -242 -273 -303 -339 0 0 0 0 -26 -21 0 0 0 0 0 0 0 0 0 0 0 0
-70 -44 -28 -24 -48 -83 -93 -79 -70 -85 -72 -26 -93 -246 -276 -268 -287 -347 -344 -340 -328 0 0 0 0 0 0 0 0 -34 0 0 0 0 0 0 0 0 0 0 0 0 0
-130 -86 -54 -40 -41 -114 -77 -85 -89 -100 -128 -131 -284 -397 0 0 0 0 0 0 0 0 0 0 0 0 0 0 0 0 0 0 0 0 0 0 0 0 0 0 0 0 0
-213 -155 -100 -89 -69 -112 -86 -142 -199 -236 -287 -86 0 -12 0 0 0 0 0 0 0 0 0 0 0 0 0 0 0 0 0 0 0 0 0 0 0 0 0 0 0 0 0
-259 -187 -162 -148 -104 -131 -169 -201 -283 -7 0 0 0 0 0 0 0 0 0 0 0 0 0 0 0 0 0 0 0 0 0 0 0 0 0 0 0 0 0 0 0 0 0
-359 -306 -272 -217 -169 -148 -203 -232 -301 0 0 0 0 0 0 0 0 0 0 0 0 0 0 0 0 0 0 0 0 0 0 0 0 0 0 0 0 0 0 0 0 0 0
-438 -396 -345 -301 -235 -212 -240 -270 -307 0 0 -12 -17 0 -24 -20 0 -31 0 0 0 0 0 0 0 0 0 0 0 0 0 0 0 0 0 0 0 0 0 0 0 0 0
-520 -469 -401 -327 -307 -288 -168 -380 -358 -276 -28 -33 -35 0 -9 0 0 0 0 0 0 0 0 0 0 0 0 0 0 0 0 0 0 0 0 0 0 0 0 0 0 0 0
0 -479 -452 -270 -269 -332 -20 -339 -190 -22 -20 -20 0 0 0 0 0 -19 0 0 0 0 0 0 0 0 0 0 0 0 0 0 0 0 0 0 0 0 0 0 0 0 0
0 0 -28 -297 -265 -14 -14 -14 -16 -3 -25 0 0 0 0 -6 0 0 -20 0 0 0 0 0 0 0 0 0 0 0 0 0 0 0 0 0 0 0 0 0 0 0 0
0 0 0 -19 -15 -3 -8 0 0 0 -29 -26 0 0 0 -15 -12 -20 0 0 0 0 0 0 0 0 0 0 0 0 0 0 0 0 0 0 0 0 0 0 0 0 0
0 0 0 0 0 0 -5 0 0 0 0 0 0 0 -7 0 0 0 0 0 0 0 0 0 0 0 0 0 0 0 0 0 0 0 0 0 0 0 0 0 0 0 0
0 0 0 0 0 0 0 0 0 -3 0 0 0 0 -9 -11 -5 0 0 0 0 0 0 0 0 0 0 0 0 0 0 0 0 0 0 0 0 0 0 0 0 0 0
0 0 0 0 0 0 0 0 0 0 0 0 0 0 -14 -17 -29 0 0 0 0 0 0 0 0 0 0 0 0 0 0 0 0 0 0 0 0 0 0 0 0 0 0
0 0 0 0 0 0 0 0 0 0 0 0 0 0 -16 -6 0 0 0 0 0 0 0 0 0 0 0 0 0 0 0 0 0 0 0 0 0 0 0 0 0 0 0
0 0 0 0 0 0 0 0 0 0 0 0 0 0 0 0 0 0 0 0 0 0 0 0 0 0 0 0 0 0 0 0 0 0 0 0 0 0 0 0 0 0 0
0 0 0 0 0 0 0 0 0 0 0 0 0 0 0 0 0 0 0 0 0 0 0 0 0 0 0 0 0 0 0 0 0 0 0 0 0 0 0 0 0 0 0
0 0 0 0 0 0 0 0 0 0 0 0 0 0 0 0 0 0 0 0 0 0 0 0 0 0 0 0 0 0 0 0 0 0 0 0 0 0 0 0 0 0 0
Wind_Speed
30 30 31 31 30 31 31 25 15 13 13 14 14 13 13 14 14 15 16 16 17 18 15 12 14 14 14 14 15 17 18 19 21 21 22 23 24 24 24 23 23 22 22
34 32 32 32 32 32 32 32 28 22 17 17 14 13 14 14 14 14 14 15 16 16 9 12 14 13 13 14 16 18 19 19 19 21 21 21 22 23 22 22 20 20 19
35 33 33 33 33 33 33 33 33 30 23 20 18 15 12 12 12 12 9 10 10 12 8 9 9 11 14 17 19 20 20 20 19 19 19 18 17 17 17 17 18 19 20
35 34 33 33 33 33 32 32 32 31 30 26 23 15 9 9 11 12 3 7 10 10 10 12 12 15 15 20 21 22 21 18 15 12 10 9 11 15 16 17 19 19 20
35 34 33 33 32 32 32 32 31 31 31 30 27 16 7 8 9 2 9 4 9 11 12 13 15 15 16 17 15 12 11 12 11 11 10 9 12 16 17 18 19 20 21
34 33 33 33 32 31 31 32 31 31 30 30 29 20 8 5 9 2 5 7 7 10 11 13 13 14 13 10 12 12 14 16 15 13 13 14 17 19 21 22 22 23 23
33 32 31 31 31 31 30 30 31 30 30 30 30 29 10 6 6 7 7 8 9 11 12 12 10 10 10 11 12 13 15 17 18 17 17 17 20 21 22 22 22 23 23
31 30 29 28 28 29 29 28 29 29 29 29 29 29 27 4 5 7 9 9 9 7 5 6 7 8 9 9 9 14 18 18 19 20 21 21 21 22 22 23 23 23 23
27 26 25 25 27 27 26 27 27 28 28 28 27 28 27 23 15 11 8 6 5 4 5 6 7 7 9 10 12 17 19 19 20 20 20 20 21 22 22 23 23 22 22
24 23 23 22 23 23 23 24 25 24 26 26 26 26 26 26 24 17 8 6 6 7 8 8 10 11 12 14 15 17 17 17 18 19 20 20 21 22 22 22 23 23 23
20 22 24 25 22 20 18 20 21 22 21 22 24 24 21 23 19 5 8 9 10 11 11 11 12 13 14 16 16 17 17 17 18 20 20 20 21 21 22 22 22 22 22
18 20 21 21 19 16 12 14 15 16 18 19 21 21 18 20 20 20 19 17 15 14 13 14 15 15 15 17 18 18 17 17 18 19 19 20 21 21 22 22 22 22 22
15 15 16 15 15 14 12 10 8 10 12 13 18 17 15 13 16 17 17 15 15 15 16 17 18 17 17 17 18 18 18 18 17 18 19 20 21 21 21 21 22 22 22
14 15 15 12 12 10 11 10 9 8 8 10 13 14 14 12 13 14 14 15 16 16 17 17 18 18 18 18 19 19 19 19 18 17 17 18 20 22 22 22 22 22 23
14 15 15 14 11 8 9 9 9 9 10 7 6 10 11 11 11 12 13 14 15 16 17 17 18 18 19 19 19 19 19 20 19 19 18 19 20 21 22 22 22 23 24
15 18 19 18 12 8 7 9 10 9 7 5 5 8 9 11 12 12 13 14 15 16 16 17 17 18 19 19 20 21 21 22 21 21 20 20 20 20 21 22 23 25 26
16 17 19 18 15 11 8 7 5 7 3 4 5 8 8 9 11 12 13 13 14 15 16 17 18 19 19 21 21 22 22 22 21 20 20 20 21 22 22 23 24 25 27
12 15 15 12 13 11 7 4 2 2 2 4 5 7 6 8 9 10 12 13 14 15 16 17 18 19 20 22 23 24 23 22 21 21 21 21 22 23 24 25 25 25 27
12 12 12 12 11 6 3 1 3 2 2 3 5 5 7 8 9 10 11 13 14 16 16 17 18 19 20 22 23 22 23 21 19 19 20 22 23 24 26 27 28 30 32
10 9 10 8 7 3 1 3 3 3 4 4 5 5 5 7 9 10 11 12 14 15 16 17 18 19 20 24 22 22 21 20 21 20 20 22 23 26 28 29 31 33 34
9 10 10 9 7 5 2 1 1 0 2 5 6 6 6 6 7 8 10 12 14 15 16 17 17 19 21 25 21 20 18 18 22 22 22 22 24 28 30 32 34 35 36
11 11 10 9 8 6 5 3 4 2 7 6 6 8 5 5 6 8 9 12 14 15 16 18 19 18 19 23 19 17 18 17 19 23 20 25 27 31 34 35 36 37 38
12 12 11 10 9 8 6 4 8 8 9 9 7 5 5 4 6 8 10 12 14 15 17 18 18 17 17 19 21 19 19 19 23 20 22 24 30 35 34 35 36 38 38
12 11 11 10 11 9 8 6 5 6 6 9 5 5 5 5 6 8 10 12 14 16 17 17 17 17 16 17 17 19 19 18 22 24 22 28 30 38 36 35 40 38 38
13 12 10 9 11 9 9 7 6 6 7 5 4 2 5 7 8 9 9 12 14 16 17 17 17 17 16 16 18 19 20 21 20 24 30 30 35 31 32 41 38 38 41
15 13 12 11 11 10 10 8 8 7 6 5 4 4 5 7 8 9 9 11 14 16 17 16 16 16 16 17 19 20 21 22 23 25 29 35 38 34 39 31 37 39 38
Wind_Direction
152 144 136 138 132 131 126 82 56 51 48 49 50 46 45 45 43 40 38 37 39 42 38 37 36 29 26 24 24 26 28 30 32 32 33 34 38 38 38 32 30 24 24
142 141 132 132 127 125 122 106 88 68 55 54 50 45 46 46 42 40 40 39 39 39 34 34 30 21 14 14 21 31 32 28 29 31 33 32 34 35 33 29 24 20 18
137 137 133 129 123 121 118 113 111 92 67 62 57 51 43 43 42 42 37 33 31 31 27 24 15 6 9 24 32 41 37 33 31 30 28 23 19 20 20 17 17 16 19
136 137 132 128 124 119 115 110 107 108 94 79 69 53 42 41 41 40 34 28 29 26 24 20 12 11 18 41 41 43 39 32 23 18 13 5 9 14 15 17 18 15 16
135 134 130 125 123 119 116 113 107 105 107 102 85 57 41 37 36 15 25 3 14 15 16 16 16 16 25 32 27 17 13 15 13 11 4 356 0 8 10 9 10 9 11
133 132 125 123 121 116 115 112 111 108 108 112 107 70 35 23 29 310 352 355 352 0 6 10 15 17 14 7 14 13 16 25 22 14 7 4 12 15 18 20 21 21 19
131 128 125 119 116 115 111 111 111 111 109 110 116 110 39 10 1 357 351 348 350 356 4 8 2 3 8 11 13 12 22 30 33 26 17 9 19 20 17 16 17 15 13
125 125 121 117 115 115 111 107 112 114 112 112 110 120 132 214 336 349 352 348 345 340 321 336 345 354 358 353 349 18 37 34 34 32 29 24 19 18 19 18 16 14 13
121 119 117 116 117 114 109 110 109 110 112 115 97 111 119 148 175 191 208 235 269 292 304 329 336 336 347 341 349 34 45 39 35 31 23 18 15 17 16 14 13 12 12
118 116 113 111 112 108 107 106 106 102 106 101 99 97 98 107 129 166 220 257 301 321 326 333 345 345 347 351 0 31 31 24 23 22 21 21 19 17 16 12 12 14 15
114 119 124 125 116 109 98 101 98 99 93 93 96 92 77 98 139 292 347 345 350 351 344 334 330 340 354 4 6 22 24 23 21 20 22 23 23 22 19 15 13 12 10
120 121 121 119 116 105 90 93 90 87 88 87 92 87 65 74 80 73 65 44 19 0 344 348 347 347 350 3 10 11 19 22 22 25 29 29 23 16 11 10 9 9 9
121 119 120 115 112 108 101 91 71 72 73 72 89 82 58 38 57 63 58 27 15 1 8 23 13 10 7 357 0 10 11 17 26 23 20 13 12 13 14 11 8 5 4
127 128 125 118 114 105 102 100 90 78 67 67 75 73 70 43 44 36 23 22 26 35 30 28 21 16 6 356 352 355 2 6 11 21 21 19 12 4 3 3 1 1 359
130 132 131 126 120 110 107 100 98 94 92 54 0 49 55 41 27 20 13 40 37 41 42 40 30 19 10 8 6 359 356 354 357 1 5 5 3 1 0 0 358 354 351
132 136 136 136 127 116 106 112 111 105 86 351 17 21 27 43 47 42 36 37 38 35 32 32 28 24 18 2 350 340 337 339 346 352 357 359 358 359 358 355 353 350 346
137 137 141 138 131 123 114 112 92 98 49 29 20 347 44 38 53 45 48 42 34 28 22 20 13 11 6 355 347 343 342 342 347 353 357 357 354 354 353 351 349 348 346
139 140 138 134 133 127 119 107 348 342 1 332 338 345 17 16 20 35 37 38 31 20 17 12 6 7 2 354 345 338 340 345 349 352 355 355 354 353 352 350 350 348 346
149 146 142 142 140 127 116 349 330 309 321 346 337 353 344 358 9 22 28 23 23 16 15 14 10 9 5 356 352 355 352 357 359 2 1 0 359 357 354 351 348 344 341
161 160 154 151 148 145 262 307 309 316 312 315 320 337 356 355 7 15 25 24 19 14 10 9 9 6 4 350 355 356 0 9 4 3 2 0 1 356 353 351 347 344 341
179 173 168 165 163 165 191 228 254 297 319 308 314 319 330 356 21 29 21 17 12 7 6 3 6 2 358 352 358 1 7 8 7 3 360 360 355 349 347 344 341 340 338
189 184 179 177 177 183 188 236 276 285 296 301 302 305 342 2 21 20 16 6 4 5 2 360 359 1 2 358 7 11 3 5 358 355 4 353 350 345 343 342 341 340 338
204 195 191 190 190 190 195 216 280 288 291 290 295 313 331 5 9 9 359 0 1 1 359 358 1 9 9 10 10 9 359 353 350 352 350 351 345 341 342 343 342 339 339
213 206 198 198 194 201 193 203 230 260 272 286 291 307 329 346 353 352 357 360 0 1 3 5 9 10 15 11 12 12 10 2 351 344 349 341 344 339 341 342 339 341 340
225 212 216 213 206 210 200 205 216 245 271 279 280 293 318 325 334 346 355 359 1 2 2 2 3 11 18 15 11 5 1 359 357 345 335 337 336 342 343 337 340 340 338
237 229 222 218 210 213 206 215 212 211 244 253 264 275 302 318 330 341 352 356 356 357 357 2 8 14 17 16 9 4 359 353 348 344 338 335 334 339 337 343 340 341 342